Location: Unspecified
(42.3650°N, 71.1030°W)
Time: 10:35:25
(UTC+00:00)

Vanguard 2 Rocket - All Passes

Search period start: 19 June 2024 00:00
Search period end: 29 June 2024 00:00
Orbit: 555 x 3304 km, 32.9° (Epoch: 18 June)

Date Brightness Start Highest point End Pass type
(mag) Time Alt. Az. Time Alt. Az. Time Alt. Az.
19 Jun - 05:31:17 10° S 05:45:48 27° SE 05:59:53 10° E visible
19 Jun - 07:42:54 10° SW 08:01:40 49° SSE 08:16:44 10° E visible
19 Jun - 09:59:18 10° WSW 10:18:08 60° S 10:30:31 10° ESE daylight
19 Jun - 12:17:54 10° W 12:33:07 46° SSW 12:42:20 10° SE daylight
19 Jun - 14:38:11 10° W 14:45:23 18° SW 14:50:43 10° S daylight
20 Jun - 04:30:50 10° S 04:42:01 19° SE 04:53:32 10° E visible
20 Jun - 06:39:27 10° SW 06:57:10 42° SSE 07:13:06 10° E visible
20 Jun - 08:54:18 10° WSW 09:13:46 59° S 09:27:55 10° E daylight
20 Jun - 11:12:15 10° W 11:29:45 55° SSW 11:40:39 10° ESE daylight
20 Jun - 13:31:40 10° W 13:43:15 29° SW 13:50:50 10° SSE daylight
21 Jun - 03:34:52 10° SE 03:38:36 11° SE 03:42:26 10° ESE visible
21 Jun - 05:36:54 10° SSW 05:52:51 34° SE 06:08:42 10° E visible
21 Jun - 07:49:52 10° SW 08:09:08 55° SSE 08:24:51 10° E visible
21 Jun - 10:06:46 10° W 10:25:48 60° S 10:38:31 10° ESE daylight
21 Jun - 12:25:39 10° W 12:40:34 41° SSW 12:49:57 10° SE daylight
21 Jun - 14:48:04 10° WSW 14:52:25 13° SW 14:56:05 10° SSW daylight
22 Jun - 04:35:26 10° S 04:48:53 26° SE 05:03:16 10° E visible
22 Jun - 06:46:08 10° SW 07:04:26 50° SSE 07:21:16 10° E visible
22 Jun - 09:01:40 10° WSW 09:21:23 62° S 09:35:55 10° ESE daylight
22 Jun - 11:19:52 10° W 11:37:17 51° SSW 11:48:26 10° SE daylight
22 Jun - 13:40:02 10° W 13:50:21 23° SW 13:57:38 10° S daylight
23 Jun - 03:35:40 10° SSE 03:45:21 17° SE 03:55:59 10° E visible
23 Jun - 05:43:12 10° SSW 05:59:55 42° SSE 06:17:03 10° E visible
23 Jun - 07:57:06 10° WSW 08:16:38 60° S 08:32:51 10° E visible
23 Jun - 10:14:20 10° W 10:33:23 58° SSW 10:46:23 10° ESE daylight
23 Jun - 12:33:33 10° W 12:47:48 34° SW 12:57:14 10° SSE daylight
24 Jun - 04:41:09 10° SSW 04:55:45 33° SE 05:12:01 10° E visible
24 Jun - 06:53:10 10° SW 07:11:46 56° SSE 07:29:16 10° E visible
24 Jun - 09:09:11 10° WSW 09:28:57 62° S 09:43:49 10° ESE daylight
24 Jun - 11:27:34 10° W 11:44:38 45° SSW 11:55:58 10° SE daylight
24 Jun - 13:49:05 10° W 13:57:16 17° SW 14:03:37 10° SSW daylight
25 Jun - 03:40:14 10° S 03:52:04 24° SE 04:05:51 10° E visible
25 Jun - 05:49:58 10° SW 06:07:02 49° SSE 06:25:06 10° E visible
25 Jun - 08:04:32 10° WSW 08:24:07 63° S 08:40:45 10° ESE visible
25 Jun - 10:21:57 10° W 10:40:50 54° SSW 10:54:04 10° SE daylight
25 Jun - 12:41:42 10° W 12:54:49 28° SW 13:04:04 10° S daylight
26 Jun - 02:41:22 10° SSE 02:48:55 15° SE 02:57:30 10° E visible
26 Jun - 04:47:32 10° SSW 05:02:40 40° SSE 05:20:16 10° E visible
26 Jun - 07:00:28 10° WSW 07:19:08 60° S 07:37:08 10° E visible
26 Jun - 09:16:46 10° W 09:36:26 60° SSW 09:51:35 10° ESE daylight
26 Jun - 11:35:23 10° W 11:51:47 38° SW 12:03:12 10° SSE daylight
26 Jun - 14:00:09 10° WSW 14:04:02 11° SW 14:07:28 10° SW daylight
27 Jun - 03:46:00 10° SSW 03:58:49 31° SE 04:14:37 10° E visible
27 Jun - 05:57:05 10° SW 06:14:15 55° SSE 06:32:59 10° E visible
27 Jun - 08:12:05 10° WSW 08:31:36 63° S 08:48:32 10° ESE visible
27 Jun - 10:29:38 10° W 10:48:05 48° SSW 11:01:31 10° SE daylight
27 Jun - 12:50:22 10° W 13:01:38 21° SW 13:10:12 10° S daylight
28 Jun - 02:45:40 10° S 02:55:33 21° SE 03:07:44 10° E visible
28 Jun - 04:54:23 10° SW 05:09:41 47° SSE 05:28:13 10° E visible
28 Jun - 07:07:58 10° WSW 07:26:33 63° S 07:44:55 10° E visible
28 Jun - 09:24:25 10° W 09:43:48 56° SSW 09:59:10 10° SE daylight
28 Jun - 11:43:25 10° W 11:58:43 32° SW 12:09:58 10° SSE daylight
